Location: �terpigny
(49.8910°N, 2.9249°E)
Time: 15:47:04
(UTC+00:00)

CZ-4C R/B - Pass Details

Date: 24 October 2021
Orbit: 403 x 482 km, 97.7° (Epoch: 27 November)

Event Time Altitude Azimuth Distance (km) Brightness Sun altitude
Rises 18:30:39 0° 10° (N) 2,472 6.6 -18.5°
Reaches altitude 10° 18:32:44 10° 7° (N) 1,580 5.6 -18.9°
Maximum altitude 18:36:03 60° 287° (WNW) 507 3.4 -19.4°
Drops below altitude 10° 18:39:16 10° 207° (SSW) 1,522 5.8 -19.9°
Sets 18:41:15 0° 204° (SSW) 2,369 6.8 -20.2°
